Flag for Guadeloupe Weather past 2 weeks in Basse-Terre, Guadeloupe

Now
88 °F

Passing clouds.


Feels Like: 94 °F
Forecast: 78 / 83 °F
Wind: 16 mph from Southeast

Location: Le Raizet - Guadeloupe

Current Time: Oct 1, 2014 at 12:35:02 PM

Latest Report: Oct 1, 2014 at 12:00 PM


Visibility: N/A

Pressure: 30.01 "Hg

Humidity: 59%

Dew point: 72 °F

Location of Basse-TerreLocation

Historic Weather in Basse-Terre — Graph

°F

Basse-Terre temperature yesterday

Maximum temperature yesterday: 88 °F (at 11:00 AM)
Minimum temperature yesterday: 77 °F (at 12:00 AM)
Average temperature yesterday: 81 °F

Past Weeks' High & Low Weather Summary

 TemperatureHumidityPressure
High90 °F (Sep 28, 12:30 PM)100% (Sep 20, 1:00 AM)30.04 "Hg (Sep 20, 1:00 AM)
Low73 °F (Sep 19, 10:30 AM)52% (Sep 28, 12:00 PM)29.83 "Hg (Sep 26, 2:30 AM)
Average80 °F81%29.94 "Hg
* Reported Sep 16 11:00 AM — Oct 1 11:30 AM, Basse-Terre, Weather by CustomWeather, © 2014

Note: Actual official high and low records may vary slightly from our data, if they occured in-between our weather recording intervals... More about our weather records

Advertising

Basse-Terre weather history for previous 24 hours

 ConditionsComfort  
Time TempWeatherWind HumidityBarometerVisibility
11:30 AM
Oct 1
90 °FPassing clouds.15 mph59%30.01 "HgN/A
11:00 AM88 °FPassing clouds.15 mph55%30.01 "HgN/A
10:30 AM88 °FScattered clouds.17 mph59%30.01 "HgN/A
10:00 AM86 °FScattered clouds.13 mph66%30.04 "HgN/A
9:30 AM86 °FScattered clouds.12 mph66%30.04 "HgN/A
9:00 AM86 °FScattered clouds.9 mph66%30.04 "HgN/A
8:30 AM86 °FPassing clouds.8 mph66%30.01 "HgN/A
8:04 AM84 °FPassing clouds.10 mph70%30.01 "HgN/A
7:30 AM82 °FPassing clouds.5 mph74%30.01 "HgN/A
7:00 AM81 °FClear.No wind79%29.98 "HgN/A
6:30 AM77 °FFog.No wind83%29.98 "HgN/A
6:00 AM77 °FClear.No wind83%29.98 "HgN/A
5:30 AM77 °FClear.No wind83%29.98 "HgN/A
5:00 AM77 °FClear.2 mph83%29.95 "HgN/A
4:30 AM77 °FClear.2 mph83%29.95 "HgN/A
4:00 AM77 °FPassing clouds.2 mph83%29.95 "HgN/A
3:30 AM77 °FClear.2 mph83%29.95 "HgN/A
3:00 AM79 °FPassing clouds.3 mph79%29.95 "HgN/A
2:30 AM77 °FClear.3 mph83%29.95 "HgN/A
2:00 AM77 °FClear.5 mph83%29.95 "HgN/A
1:30 AM77 °FClear.3 mph83%29.98 "HgN/A
1:00 AM79 °FClear.5 mph79%29.98 "HgN/A
12:30 AM79 °FClear.6 mph84%29.98 "HgN/A
12:00 AM79 °FClear.6 mph84%30.01 "HgN/A
11:30 PM
Sep 30
79 °FClear.3 mph84%30.01 "HgN/A
11:00 PM79 °FClear.2 mph84%30.01 "HgN/A
10:30 PM79 °FClear.3 mph84%30.01 "HgN/A
10:00 PM79 °FClear.3 mph84%30.01 "HgN/A
9:30 PM79 °FClear.5 mph84%30.01 "HgN/A
9:00 PM81 °FWarm.2 mph79%30.01 "HgN/A
8:30 PM81 °FClear.2 mph79%30.01 "HgN/A
8:00 PM81 °FPassing clouds.3 mph79%30.01 "HgN/A
7:30 PM81 °FClear.5 mph79%29.98 "HgN/A
7:00 PM81 °FPassing clouds.3 mph79%29.98 "HgN/A
6:30 PM82 °FPassing clouds.6 mph74%29.95 "HgN/A
6:00 PM82 °FPassing clouds.7 mph74%29.95 "HgN/A
5:30 PM84 °FScattered clouds.9 mph70%29.95 "HgN/A
5:00 PM84 °FScattered clouds.12 mph70%29.95 "HgN/A
4:00 PM88 °FScattered clouds.12 mph62%29.95 "HgN/A
3:30 PM88 °FScattered clouds.10 mph59%29.92 "HgN/A
3:00 PM88 °FScattered clouds.10 mph55%29.92 "HgN/A
2:30 PM88 °FScattered clouds.13 mph62%29.95 "HgN/A
2:00 PM88 °FScattered clouds.12 mph62%29.95 "HgN/A
1:46 PM88 °FScattered clouds.13 mph59%29.95 "HgN/A
12:30 PM88 °FScattered clouds.13 mph62%29.98 "HgN/A
12:00 PM88 °FScattered clouds.13 mph62%29.98 "Hg6 mi
Weather by CustomWeather, © 2014

See weather overviewHow to use our weather pages